STARLINK-35298, 65842

Orbit data source: Space-Track

STARLINK-35298, 65842 is a payload satellite owned by SpaceX/Seattle (US) in LEO that was launched on Mon, 29 Sep 2025 UTC via an FALCON 9 launch vehicle from the Air Force Western Test Range (AFWTR). Payload-class satellites include a variety of spacecraft equipped with specific instruments for various scientific and technological missions. These include communications satellites like Starlink; space stations such as the ISS; scientific satellites like the Hubble; Earth observation satellites from companies like Planet Labs, Umbra, and HawkEye 360; GPS; miniature CubeSats for education and research; and military/defense satellites.

Loading next visibility...
Identifier
65842, 2025-221V
Orbit
LEO
Country
Flag of USUS
Related business
Manufacturer
SpaceX/Seattle
Mission
Operational Commercial Communications
Bus & Motor
STARLINK V2MO, Unknown motor
Mass
575 kg wet, ~530 kg dry
Launch date (UTC)
2025-09-29 (2 months ago)
Launch vehicle
FALCON 9
Launch site
Air Force Western Test Range (AFWTR)
Object type
Payload
Rocket body
Debris
Shape & HBR
Box + 2 Pan, 17.7 m
Radar Cross Section
36.964 m²

Expand to show TLE details & history
Last TLE update: 10 hours ago

TLE from 10 hours ago
0 STARLINK-35298
1 65842U 25221V   25340.88213516  .00032656  00000-0  11091-2 0  9991
2 65842  53.1587 159.4582 0001195 102.1841 257.9294 15.30221874 10522
Epoch: 2025-12-06T21:10Z
TLE epoch observation values (Epoch: 2025-12-06T21:10:16.477Z)
Latitude
-0.00001°
Longitude
125.98604°
Altitude
476.221 km
Speed
7.629 km/s
True Right ascension
10h 37m 49s
True Declination
0° 00' 00"
Sunlit
Object was in daylight at epoch
Visualization orbit readout
Latitude
Unknown
Longitude
Unknown
Altitude
Unknown
Speed
Unknown
Apparent Right ascension
Unknown
Apparent Declination
Unknown
Sunlit
N/A
Visualization observer readout
Local Sidereal Time
05:38:57
Azimuth
Unknown
Elevation
Unknown
Doppler factor
Unknown
Orbital elements
Apogee altitude
476.225 km
Perigee altitude
474.587 km
Semi-major axis
6,853.543 km
Eccentricity
0.00012
Inclination
53.1587°
RAAN
159.4582°
Arg. of periapsis
102.1841°
True anomaly
257.91601°
Mean anomaly
257.9294°
Eccentric anomaly
257.9227°
Mean motion
3.82534 °/min
Orbital period
94.11 mins
BSTAR
0.0011091
Loading maneuver chart data...
Computing Atmospheric mass density...
Loading historical data...
Loading historical data...
Loading historical data...
Loading historical data...
Loading historical data...
Loading historical data...
Loading historical data...

Documentation

Showing up to 5 results
|